STARLINK-11522, 63141

Orbit data source: Space-Track

STARLINK-11522, 63141 is a payload satellite owned by SpaceX/Seattle (US) in LEO that was launched on Mon, 03 Mar 2025 UTC via an FALCON 9 launch vehicle from the Air Force Eastern Test Range (AFETR). Payload-class satellites include a variety of spacecraft equipped with specific instruments for various scientific and technological missions. These include communications satellites like Starlink; space stations such as the ISS; scientific satellites like the Hubble; Earth observation satellites from companies like Planet Labs, Umbra, and HawkEye 360; GPS; miniature CubeSats for education and research; and military/defense satellites.

Loading next visibility...
Identifier
63141, 2025-043K
Orbit
LEO
Last TLE update
18 hours ago
Origin
Manufacturer
SpaceX/Seattle
Mission
Operational Commercial Communications
Bus & Motor
STARLINK V2M, Unknown motor
Mass
730 kg wet, ~700 kg dry
Launch date (UTC)
2025-03-03 (4 months ago)
Launch vehicle
FALCON 9
Launch site
Air Force Eastern Test Range (AFETR)
Object type
Payload
Rocket body
Debris
Shape & HBR
Box + 2 Pan, 29 m
Radar Cross Section
36.964 m², Large (>1 m²)

Expand to show TLE details & history

TLE from 18 hours ago
0 STARLINK-11522
1 63141U 25043K   25169.56136060  .00239669  00000-0  17924-2 0  9999
2 63141  42.9974  42.6116 0001903 252.8311 107.2349 15.71176898 17756
Epoch: 2025-06-18T13:28Z
TLE epoch observation values (Epoch: 2025-06-18T13:28:21.555Z)
Latitude
Longitude
-66.51984°
Altitude
355.683 km
Speed
7.697 km/s
True Right ascension
02h 50m 26s
True Declination
0° 00' 00"
Sunlit
Object was in daylight at epoch
Visualization orbit readout
Latitude
-42.134°
Longitude
-176.27047°
Altitude
366.178 km
Speed
7.691 km/s
Apparent Right ascension
00h 37m 05s
Apparent Declination
-78° 38' 53"
Sunlit
Object is in full shadow
Visualization observer readout
Local Sidereal Time
18:11:34
Azimuth
165.153° S
Elevation
-40.232°
Doppler factor
1
Orbital elements
Apogee altitude
358.796 km
Perigee altitude
356.233 km
Semi-major axis
6,735.652 km
Eccentricity
0.00019
Inclination
42.9974°
RAAN
42.6116°
Arg. of periapsis
252.8311°
True anomaly
Unknown
Mean anomaly
107.2349°
Eccentric anomaly
Unknown
Mean motion
3.92621 °/min
Orbital period
91.69 mins
BSTAR
0.0017924
Loading maneuver chart data...
Loading SW <> Apogee altitude chart data...
Loading historical data...
Loading historical data...
Loading historical data...
Loading historical data...
Loading historical data...
Loading historical data...
Loading historical data...

STARLINK-11522 Visibility forecast

Observer location: undefined°, undefined°

Span
Click to sort rows by Start time (UTC) header in descending order
Start Az.
Max El. time (UTC)
Max El. Az.
Max El.
End time (UTC)
End Az.
5 mins2025-06-19 18:39:56.206Z215.961° SW2025-06-19 18:41:56.206Z172.386° S27.179°2025-06-19 18:44:56.206Z86.426° E
4 mins2025-06-19 20:16:56.206Z276.693° WNW2025-06-19 20:17:56.206Z308.092° NW37.964°2025-06-19 20:20:56.206Z67.761° E
4 mins2025-06-19 21:52:56.206Z299.662° NW2025-06-19 21:54:56.206Z27.768° NE34.307°2025-06-19 21:56:56.206Z77.433° E
4 mins2025-06-19 23:28:56.206Z280.376° WNW2025-06-19 23:30:56.206Z175.283° S41.509°2025-06-19 23:32:56.206Z122.162° SE
|